Burlington, IA

11:37 PM CST on November 22, 2017 (GMT -0600)
Burlington Regional

Weather History for KBRL - November, 2011

Change the Weather History Date:

Friday, November 18, 2011

  Actual Average Record
Temperature  
Mean Temperature 45 °F 41 °F  
Max Temperature 57 °F 50 °F 76 °F (1953)
Min Temperature 32 °F 32 °F 9 °F (2014)
Degree Days  
Heating Degree Days 20 24  
Month to date heating degree days 333 353  
Since 1 July heating degree days 768 747  
Cooling Degree Days 0 0  
Month to date cooling degree days 0 0  
Year to date cooling degree days 1247 1206  
Moisture  
Dew Point 21 °F    
Average Humidity 40    
Maximum Humidity 56    
Minimum Humidity 24    
Precipitation  
Precipitation 0.00 in 0.08 in 0.95 in (1957)
Month to date precipitation 4.08 1.53  
Year to date precipitation 31.18 35.42  
Sea Level Pressure  
Sea Level Pressure 29.94 in    
Wind  
Wind Speed 17 mph (SSW)    
Max Wind Speed 33 mph    
Max Gust Speed 45 mph    
Visibility 9 miles    
Events      
T = Trace of Precipitation, MM = Missing Value Source: NWS Daily Summary

Daily Weather History Graph

Daily Weather History Graph

Search for Another Location

Airport or City:

Trip Planner

Search our weather history database for the weather conditions in past years. The results will help you decide how hot, cold, wet, or windy it might be!

Date:

Astronomy

Nov. 18, 2011 Rise Set
Actual Time 6:54 AM CST 4:44 PM CST
Civil Twilight 6:25 AM CST 5:13 PM CST
Nautical Twilight 5:51 AM CST 5:47 PM CST
Astronomical Twilight 5:19 AM CST 6:19 PM CST
Moon No Moon Rise 12:33 PM CST (11/18)
Length of Visible Light 10h 48m
Length of Day
9h 49m
Waning Gibbous, 49% of the Moon is Illuminated
Nov 18
Waning Gibbous
Nov 25
New
Dec 2
First Quarter
Dec 10
Full
Dec 17
Last Quarter

Hourly Weather History & Observations

Time (CST) Temp. Windchill Dew Point Humidity Pressure Visibility Wind Dir Wind Speed Gust Speed Precip Events Conditions
12:53 AM 32.0 °F 23.6 °F 18.0 °F 56% 30.13 in 10.0 mi South 10.4 mph - N/A   Clear
1:53 AM 34.0 °F 24.6 °F 19.9 °F 56% 30.11 in 10.0 mi South 13.8 mph - N/A   Clear
2:53 AM 35.1 °F 25.2 °F 19.9 °F 54% 30.10 in 10.0 mi South 16.1 mph 25.3 mph N/A   Clear
3:53 AM 35.1 °F 25.2 °F 19.9 °F 54% 30.09 in 10.0 mi South 16.1 mph 24.2 mph N/A   Clear
4:53 AM 35.1 °F 25.2 °F 19.9 °F 54% 30.07 in 10.0 mi South 16.1 mph 24.2 mph N/A   Clear
5:53 AM 36.0 °F 26.0 °F 21.0 °F 55% 30.06 in 10.0 mi South 17.3 mph - N/A   Clear
6:53 AM 36.0 °F 26.7 °F 19.9 °F 52% 30.05 in 10.0 mi South 15.0 mph 23.0 mph N/A   Clear
7:53 AM 37.9 °F 27.3 °F 19.9 °F 48% 30.04 in 10.0 mi South 21.9 mph 28.8 mph N/A   Clear
8:53 AM 41.0 °F 31.6 °F 21.0 °F 45% 30.03 in 10.0 mi South 20.7 mph 29.9 mph N/A   Clear
9:53 AM 44.1 °F 35.9 °F 21.0 °F 40% 30.01 in 10.0 mi South 19.6 mph 29.9 mph N/A   Clear
10:29 AM 46.4 °F 37.0 °F 19.4 °F 34% 29.98 in 5.0 mi SSW 31.1 mph 44.9 mph N/A   Haze
10:53 AM 48.9 °F - 19.9 °F 32% 29.98 in 9.0 mi SSW 25.3 mph 39.1 mph N/A   Clear
11:23 AM 50.0 °F - 21.2 °F 32% 29.94 in 4.0 mi SSW 25.3 mph 36.8 mph N/A   Haze
11:53 AM 52.0 °F - 19.9 °F 28% 29.93 in 10.0 mi SSW 26.5 mph 41.4 mph N/A   Clear
12:53 PM 55.9 °F - 19.9 °F 25% 29.88 in 9.0 mi SSW 26.5 mph 35.7 mph N/A   Clear
1:53 PM 55.9 °F - 19.0 °F 24% 29.84 in 10.0 mi SSW 28.8 mph 39.1 mph N/A   Clear
2:53 PM 57.2 °F - 21.2 °F 25% 29.80 in 10.0 mi SSW 19.6 mph 33.4 mph N/A   Clear
3:53 PM 55.9 °F - 23.0 °F 28% 29.82 in 7.0 mi SSW 21.9 mph 28.8 mph N/A   Partly Cloudy
4:53 PM 53.6 °F - 24.8 °F 33% 29.80 in 10.0 mi South 15.0 mph 23.0 mph N/A   Clear
5:53 PM 51.1 °F - 23.0 °F 33% 29.81 in 10.0 mi South 11.5 mph - N/A   Clear
6:53 PM 50.0 °F - 21.0 °F 32% 29.82 in 10.0 mi South 15.0 mph - N/A   Clear
7:53 PM 48.9 °F - 21.0 °F 33% 29.81 in 10.0 mi South 13.8 mph - N/A   Clear
8:53 PM 46.9 °F - 21.0 °F 36% 29.83 in 10.0 mi South 11.5 mph - N/A   Clear
9:53 PM 43.0 °F 38.2 °F 21.9 °F 43% 29.86 in 10.0 mi South 8.1 mph - N/A   Clear
10:53 PM 39.9 °F 34.5 °F 23.0 °F 51% 29.87 in 10.0 mi South 8.1 mph - N/A   Clear
11:53 PM 41.0 °F 35.8 °F 23.0 °F 49% 29.87 in 10.0 mi South 8.1 mph - N/A   Clear